Flag for Canada Weather past 2 weeks in Churchill, Manitoba, Canada

Now
16 °F

Light snow. Overcast.


Feels Like: -1 °F
Forecast: 11 / 18 °F
Wind: 18 mph from North

Location: Churchill

Current Time: Apr 21, 2015 at 6:46:04 PM

Latest Report: Apr 21, 2015 at 6:00 PM


Visibility: 3 mi

Pressure: 30.26 "Hg

Humidity: 86%

Dew point: 12 °F

Location of ChurchillLocation

Historic Weather in Churchill — Graph

°F

Churchill temperature yesterday

Maximum temperature yesterday: 27 °F (at 1:00 PM)
Minimum temperature yesterday: 12 °F (at 6:00 AM)
Average temperature yesterday: 20 °F

Past Weeks' High & Low Weather Summary

 TemperatureHumidityPressure
High48 °F (Apr 12, 1:00 PM)100% (Apr 9, 6:52 AM)30.37 "Hg (Apr 9, 6:52 AM)
Low-11 °F (Apr 7, 4:00 AM)35% (Apr 8, 3:00 PM)28.97 "Hg (Apr 12, 3:00 PM)
Average21 °F82%29.93 "Hg
* Reported Apr 6 5:00 PM — Apr 21 5:00 PM, Churchill, Weather by CustomWeather, © 2015

Note: Actual official high and low records may vary slightly from our data, if they occured in-between our weather recording intervals... More about our weather records

Advertising

Churchill weather history for previous 24 hours

 ConditionsComfort  
Time TempWeatherWind HumidityBarometerVisibility
5:00 PM
Tue, Apr 21
16 °FLight snow. Overcast.20 mph86%30.24 "Hg3 mi
4:00 PM18 °FLight snow. Overcast.18 mph79%30.24 "Hg6 mi
3:00 PM18 °FLight snow. Overcast.20 mph79%30.23 "Hg6 mi
2:00 PM18 °FLight snow. Overcast.16 mph79%30.23 "Hg3 mi
1:00 PM16 °FLight snow. Overcast.18 mph79%30.22 "Hg5 mi
12:00 PM16 °FLight snow. Partly sunny.17 mph79%30.22 "Hg6 mi
11:00 AM16 °FLight snow. Overcast.18 mph86%30.21 "Hg3 mi
10:00 AM16 °FLight snow. Overcast.16 mph86%30.20 "Hg4 mi
9:00 AM16 °FLight snow. Overcast.12 mph93%30.20 "Hg4 mi
8:00 AM16 °FLight snow. Overcast.18 mph79%30.19 "Hg5 mi
7:00 AM16 °FLight snow. Overcast.21 mph79%30.19 "Hg4 mi
6:00 AM16 °FLight snow. Overcast.16 mph86%30.17 "Hg4 mi
5:00 AM16 °FLight snow. Overcast.18 mph86%30.16 "Hg15 mi
4:00 AM16 °FOvercast.18 mph86%30.16 "Hg15 mi
3:00 AM18 °FLight snow. Low clouds.17 mph86%30.16 "Hg15 mi
2:00 AM18 °FLight snow. Low clouds.17 mph93%30.15 "Hg15 mi
1:00 AM19 °FLow clouds.18 mph86%30.15 "Hg15 mi
12:00 AM19 °FLow clouds.20 mph86%30.15 "Hg15 mi
11:00 PM
Mon, Apr 20
21 °FLow clouds.18 mph86%30.15 "Hg15 mi
10:00 PM21 °FLow clouds.18 mph93%30.15 "Hg15 mi
9:00 PM21 °FLow clouds.16 mph93%30.16 "Hg15 mi
8:00 PM21 °FLow clouds.14 mph93%30.15 "Hg15 mi
7:00 PM25 °FLow clouds.14 mph86%30.14 "Hg15 mi
6:00 PM25 °FPartly sunny.14 mph86%30.13 "Hg15 mi
Weather by CustomWeather, © 2015

See weather overviewHow to use our weather pages